Weather in Owen Sound

Canada     44°34′03″N   80°56′38″W
temp.,
°C
wind,
m/s
gust,
m/s
humid.,
%
clouds,
%
prec.,
mm/h
press.,
hPa
HPBL,
m
14 june, mon
mon1423:00+13w388157 0.0 1010138
02:00+13wnw41175100 0.0 1009287
05:00+14nw4137498 0.0 1009402
08:00+14w4108539 0.0 1010466
11:00+17wnw687142 0.0 1010770
14:00+14wnw4887100 0.6 1010502
17:00+18nnw4771100 0.2 1009982
20:00+15wnw358594 0.2 1010264
15 june, tue
tue1523:00+11nw229836 0.0 101134
02:00+12n39963 0.0 1012241
05:00+11n412900 0.0 1013357
08:00+13nne59665 0.0 1014554
11:00+14n684648 0.0 1016740
14:00+16n683697 0.0 10161008
17:00+17n683786 0.0 10161255
20:00+14nnw395796 0.0 1016246
16 june, wed
wed1623:00+8nnw22720 0.0 101713
02:00+9ne22740 0.0 101817
05:00+8ne23814 0.0 101830
08:00+12nne36651 0.0 1019376
11:00+15n56490 0.0 10191016
14:00+17n573949 0.0 10191451
17:00+17nw45421 0.0 10181255
20:00+13w3668100 0.0 1017189
17 june, thu
thu1723:00+10sw2262100 0.0 101833
02:00+8ssw346485 0.0 101953
05:00+8ssw3463100 0.0 101856
08:00+12ssw3659100 0.0 1018146
11:00+19sw4655100 0.0 1017815
14:00+22wsw564455 0.0 10161265
17:00+21sw574615 0.0 10131021
20:00+19sw411655 0.0 1013530
18 june, fri
fri1823:00+16ssw61472100 0.0 1012383
02:00+17s61567100 0.0 1009443
05:00+19ssw91659100 0.0 1008889
08:00+17sw91796100 1.1 1007879
11:00+17sw81596100 0.6 1006833
14:00+18sw6119598 0.8 1006698
17:00+24sw7116527 0.3 10041711
20:00+17nw410781 1.0 1006453